www.pogodaiklimat.ru

Погода и климат >> Архив погоды >> Россия >> Мурманская область >> Алакуртти


ПОГОДА в Алакуртти

  • Прогноз погоды в Алакуртти
  • Монитор погоды в Алакуртти

АРХИВ ПОГОДЫ в Алакуртти

Время (UTC), дата Ветер
(напр.,м/с)
 
Видим.   Явления Облачность Т
(С)
Тd
(С)
f
(%)
Тe
(С)
Тes
(С)
Комфортность P
(гПа)
Po
(гПа)
Тmin
(С)
Tmax
(С)
R
(мм)
R24
(мм)
S
(см)
18 16.09 С 2 н/о н/о +7.4 +4.6 82 +5 +5 994.7 976.2 +9.3
21 16.09 С 2 н/о н/о +6.8 +4.6 86 +5 +5 995.5 976.9
00 17.09 С 2 н/о н/о +5.8 +3.7 86 +3 +3 996.6 977.9
03 17.09 С 2 н/о н/о +5.2 +3.3 88 +3 +3 997.4 978.6 +5.3
06 17.09 С 2 н/о н/о +5.1 +1.9 80 +3 +3 998.6 979.8 +4.9
09 17.09 СВ 2 н/о н/о +7.1 +1.8 69 +5 +5 999.6 980.9
12 17.09 СВ 3 н/о н/о +7.2 -0.4 58 +5 +5 1000.8 982.1
15 17.09 С 3 н/о н/о +6.9 -0.3 60 +4 +4 1001.8 983.1
18 17.09 СЗ 2 н/о н/о +1.9 +0.6 91 -2 -2 1003.2 984.1 +9.3
21 17.09 СЗ 3 н/о н/о -0.3 -1.1 94 -5 -5 1004.6 985.3
00 18.09 СЗ 2 н/о н/о -0.8 -1.1 98 -5 -5 1005.6 986.3
03 18.09 С 2 н/о н/о -1.4 -1.6 99 -6 -6 1006.1 986.7 -1.6
06 18.09 СЗ 1 н/о н/о +1.4 +0.1 91 -1 -1 1006.6 987.4 -1.9
09 18.09 С 4 н/о н/о +5.0 -0.5 68 +1 +1 1007.3 988.4
12 18.09 С 3 н/о н/о +6.8 -2.5 51 +4 +4 1007.6 988.8
15 18.09 СЗ 3 н/о н/о +6.9 -3.1 49 +4 +4 1007.8 989.0
18 18.09 СЗ 1 н/о н/о -1.7 -2.6 94 -4 -4 1009.2 989.7 +7.7
21 18.09 штиль 0 н/о н/о -3.4 -3.7 98 -5 -5 1009.7 990.1
00 19.09 штиль 0 н/о н/о -4.5 -4.7 99 -6 -6 1010.1 990.4
03 19.09 З 1 н/о н/о -4.4 -4.7 98 -7 -7 1010.1 990.4 -4.8
06 19.09 С 1 н/о н/о -0.9 -1.3 97 -3 -3 1009.9 990.5 -5.0
09 19.09 С 2 н/о н/о +4.9 -0.5 68 +3 +3 1009.7 990.7
12 19.09 З 3 н/о н/о +4.5 -0.5 70 +1 +1 1010.0 991.0
15 19.09 З 2 н/о н/о +3.9 -2.3 64 +1 +1 1009.9 990.8
18 19.09 СЗ 1 н/о н/о -0.5 -2.0 90 -3 -3 1009.6 990.2 +5.6
00 20.09 СЗ 1 н/о н/о -2.7 -3.1 97 -5 -5 1007.9 988.4
03 20.09 СЗ 4 н/о н/о +0.4 -1.4 88 -5 -5 1006.2 986.9 -3.0
06 20.09 СЗ 5-9
{11}
н/о н/о +1.4 -1.1 83 -4 -4 1005.7 986.6 -3.0
09 20.09 СЗ 6-10
{10}
н/о н/о +4.2 -1.0 69 -1 -1 1005.9 986.9
12 20.09 СЗ 6-10
{13}
н/о н/о +6.2 -0.5 62 +2 +2 1006.3 987.4
15 20.09 СЗ 5-8
{10}
н/о н/о +5.5 -0.7 64 +1 +1 1006.8 987.9
18 20.09 СЗ 3 н/о н/о +3.7 -1.2 70 0 0 1006.9 987.9 +7.0
21 20.09 СЗ 1 н/о н/о -1.7 -2.8 92 -4 -4 1007.4 988.0
00 21.09 СЗ 2 н/о н/о -3.1 -3.4 98 -7 -7 1007.3 987.8
03 21.09 СЗ 1 н/о н/о -4.1 -4.5 97 -7 -7 1007.1 987.5 -4.2
06 21.09 С 2 н/о н/о -0.3 -1.6 91 -4 -4 1006.7 987.4 -4.9
09 21.09 СЗ 1 н/о н/о +1.9 -0.6 83 0 0 1006.6 987.4
12 21.09 С 3 н/о н/о +5.2 -0.2 68 +2 +2 1006.5 987.5
15 21.09 СЗ 3 н/о н/о +3.6 +0.6 81 -0 -0 1006.8 987.7
18 21.09 СЗ 1 н/о н/о -1.5 -1.9 97 -4 -4 1008.2 988.8 +5.6
21 21.09 СЗ 2 н/о н/о -0.7 -1.2 96 -5 -5 1009.1 989.7
00 22.09 СЗ 4 н/о н/о +1.9 -0.2 86 -3 -3 1010.7 991.5
03 22.09 С 3 н/о н/о +1.7 -0.0 88 -3 -3 1012.3 993.0 -1.9
06 22.09 СЗ 2 н/о н/о +2.4 +0.2 85 -1 -1 1014.2 995.0 -1.9
09 22.09 С 5 н/о н/о +3.9 -1.0 70 -1 -1 1015.5 996.4
12 22.09 СЗ 5-8
{10}
н/о н/о +5.9 -2.0 57 +2 +2 1016.0 996.9
15 22.09 СЗ 5 н/о н/о +4.4 -0.4 71 -0 -0 1016.7 997.5

 

Местоположение метеостанции Алакуртти (Мурманская область, Россия): широта 66.95 долгота 30.37 высота над уровнем моря 154 м.

В архиве по умолчанию представлена погода в Алакуртти за последнюю неделю. Архивные данные за месяц целиком и за предыдущие месяцы, начиная с января 2011 года, Вы можете получить, выбрав интересующий диапазон дат из раскрывающегося списка и нажав кнопку "Ввод!".


*Определитесь, кто Вы:
робот инопланетянин человек

Внимание! Время в таблицах - всемирное. Для получения местного времени необходимо прибавить поправку, которая равна 3 ч.

Смотрите также архив погоды в соседних городах и на ближайших метеорологических станциях:

Погода в Зареченске (Мурманская область, Россия) (55 км)
Погода в Салла Наруска (Финляндия) (57 км)
Погода в Ковдоре (Мурманская область, Россия) (69 км)
Погода в Салле (Финляндия) (75 км)
Погода в Куусамо Киутаконгас (Финляндия) (80 км)
Погода в Оуланке (Финляндия) (82 км)
Погода в Зашейке (Карелия, Россия) (85 км)
Погода в Порту Витино (Мурманская область, Россия) (86 км)
Погода в Кандалакше (Мурманская область, Россия) (89 км)
Погода в Порту Кандалакша (Мурманская область, Россия) (91 км)

Пояснения к столбцам:

Ветер - указаны скорость ветра в м/с - средняя за 10 мин, порывы в срок и между сроками (в фигурных скобках) и направление, откуда дует ветер: С - северный, СВ - северо-восточный, В - восточный, ЮВ - юго-восточный, Ю - южный, ЮЗ - юго-западный, З - западный, СЗ - северо-западный.
Видимость - горизонтальная дальность видимости в метрах или километрах. При видимости от 1 до 10 км при отсутствии осадков обычно наблюдается дымка, при ухудшении видимости до 1 км и менее - туман. В сухую погоду видимость может ухудшаться дымом, пылью или мглою.
Явления - указаны атмосферные явления, наблюдавшиеся в срок или в последний час перед сроком; фигурными скобками обозначены явления, наблюдавшиеся между сроками (за 1-3 часа до срока); квадратными скобками обозначены град или гололедные отложения с указанием их диаметра в мм.
Облачность - указаны через наклонную черту общая и нижняя облачность в баллах и высота нижней границы облаков в метрах; квадратными скобками обозначены формы облаков: Ci - перистые, Cs - перисто-слоистые, Cc - перисто-кучевые, Ac - высококучевые, As - высокослоистые, Sc - слоисто-кучевые, Ns - слоисто-дождевые, Cu - кучевые, Cb - кучево-дождевые. Подробнее классификацию облаков см. в Атласе облаков (PDF).
T - Температура воздуха - температура, измеренная на высоте 2 м над землей.
Td - Температура точки росы - температура, при понижении до которой содержащийся в воздухе водяной пар достигнет насыщения.
f - Относительная влажность воздуха - влажноcть воздуха, измеренная на высоте 2 м над землей.
Te - Эффективная температура - температура, которую ощущает одетый по сезону человек в тени. Характеристика душности погоды. При расчете учитывается влияние влажности воздуха и скорости ветра на теплоощущения человека.
Tes - Эффективная температура на солнце - температура, которую ощущает человек, с поправкой на солнечный нагрев. Характеристика знойности погоды. Зависит от высоты солнца над горизонтом, облачности и скорости ветра. Ночью, в пасмурную погоду, а также при ветре 12 м/с и более поправка равна нулю.
P - Атмосферное давление - приведенное к уровню моря атмосферное давление.
Po - Атмосферное давление - измеренное на уровне метеостанции атмосферное давление.
Tmin - Минимальная температура - минимум температуры воздуха на высоте 2 м над землей.
Tmax - Максимальная температура - максимум температуры воздуха на высоте 2 м над землей.
R - Количество осадков - Количество выпавших осадков за период времени, мм. При наведении курсора мыши на число - период времени, за который выпало указанное количество осадков.
R24 - Количество осадков - Количество выпавших осадков за 24 часа, мм.
S - Снежный покров - Высота снежного покрова, см. При наведении курсора мыши на число - состояние снежного покрова и степень покрытия местности в баллах.